Terug naar catalogus

STARLINK-37141

ActiefCommunicatieVLEO
NORAD 68249·PAYLOAD·🇺🇸 United States

Gelanceerd Mar 17, 2026 vanaf Vandenberg Space Force Base

Loading…

Volgende Passages (komende 24 uur)

TLE

VersSource: CelesTrak SupGP

Epoch: Sep 15, 2026, 02:50 UTC

1 68249C 26054T   26258.11854167  .00035000  00000+0  10342-2 0  2589
2 68249  53.1558 126.6797 0001241  87.5880 122.0771 15.34368218    12

Volg STARLINK-37141 in realtime met AllMySat

Download on the App Store